Langdon, ND

11:36 PM CST on January 20, 2018 (GMT -0600)
Langdon

Weather History for KD55 - January, 2014

Change the Weather History Date:

Friday, January 24, 2014

  Actual Average (KDVL) Record (KDVL)
Temperature  
Mean Temperature 18 °F -  
Max Temperature 32 °F 18 °F 47 °F (1973)
Min Temperature 5 °F 1 °F -35 °F (1966)
Degree Days  
Heating Degree Days 46    
Moisture  
Dew Point 18 °F    
Average Humidity 83    
Maximum Humidity 93    
Minimum Humidity 61    
Precipitation  
Precipitation 0.13 in - - ()
Sea Level Pressure  
Sea Level Pressure 29.63 in    
Wind  
Wind Speed 20 mph (NW)    
Max Wind Speed 28 mph    
Max Gust Speed 36 mph    
Visibility 8 miles    
Events Rain , Snow    
Averages and records for this station are not official NWS values.
T = Trace of Precipitation, MM = Missing Value Source: NWS Daily Summary

Daily Weather History Graph

Daily Weather History Graph

Search for Another Location

Airport or City:

Trip Planner

Search our weather history database for the weather conditions in past years. The results will help you decide how hot, cold, wet, or windy it might be!

Date:

Astronomy

Jan. 24, 2014 Rise Set
Actual Time 8:13 AM CST 5:18 PM CST
Civil Twilight 7:38 AM CST 5:53 PM CST
Nautical Twilight 6:59 AM CST 6:32 PM CST
Astronomical Twilight 6:22 AM CST 7:09 PM CST
Moon 1:34 AM CST (1/24) 11:43 AM CST (1/24)
Length of Visible Light 10h 15m
Length of Day
9h 05m
Last Quarter, 44% of the Moon is Illuminated
Jan 24
Last Quarter
Jan 30
New
Feb 6
First Quarter
Feb 14
Full
Feb 22
Last Quarter

Hourly Weather History & Observations

Time (CST) Temp. Windchill Dew Point Humidity Pressure Visibility Wind Dir Wind Speed Gust Speed Precip Events Conditions
12:15 AM 23.0 °F 6.9 °F 19.4 °F 86% 29.65 in 8.0 mi WNW 24.2 mph 27.6 mph N/A Rain Light Freezing Rain
12:35 AM 24.8 °F 9.3 °F 23.0 °F 93% 29.65 in 5.0 mi WNW 24.2 mph - N/A Rain Light Freezing Rain
12:55 AM 24.8 °F 10.0 °F 21.2 °F 86% 29.65 in 9.0 mi WNW 21.9 mph - N/A Rain Light Freezing Rain
1:15 AM 24.8 °F 11.1 °F 21.2 °F 86% 29.66 in 10.0 mi WNW 18.4 mph - N/A Rain Light Freezing Rain
1:35 AM 23.0 °F 9.2 °F 19.4 °F 86% 29.66 in 10.0 mi WNW 17.3 mph - N/A Rain Light Freezing Rain
1:55 AM 23.0 °F 9.2 °F 19.4 °F 86% 29.66 in 10.0 mi NW 17.3 mph - N/A   Mostly Cloudy
2:15 AM 23.0 °F 9.6 °F 19.4 °F 86% 29.67 in 10.0 mi NW 16.1 mph - N/A   Overcast
2:35 AM 23.0 °F 9.2 °F 19.4 °F 86% 29.66 in 10.0 mi NW 17.3 mph - N/A   Mostly Cloudy
2:55 AM 23.0 °F 8.0 °F 19.4 °F 86% 29.67 in 10.0 mi WNW 20.7 mph - N/A   Overcast
3:15 AM 23.0 °F 9.2 °F 19.4 °F 86% 29.67 in 10.0 mi NW 17.3 mph - N/A   Overcast
3:35 AM 23.0 °F 8.7 °F 19.4 °F 86% 29.66 in 10.0 mi WNW 18.4 mph - N/A   Overcast
3:55 AM 21.2 °F 6.0 °F 17.6 °F 86% 29.66 in 10.0 mi WNW 19.6 mph - N/A   Mostly Cloudy
4:15 AM 21.2 °F 6.0 °F 17.6 °F 86% 29.67 in 10.0 mi WNW 19.6 mph - N/A   Partly Cloudy
4:35 AM 21.2 °F 6.4 °F 17.6 °F 86% 29.66 in 10.0 mi WNW 18.4 mph - N/A   Clear
4:55 AM 19.4 °F 4.1 °F 17.6 °F 93% 29.66 in 10.0 mi WNW 18.4 mph - N/A   Clear
5:15 AM 19.4 °F 5.0 °F 17.6 °F 93% 29.65 in 10.0 mi WNW 16.1 mph - N/A   Clear
5:35 AM 21.2 °F 6.4 °F 17.6 °F 86% 29.65 in 10.0 mi WNW 18.4 mph - N/A   Clear
5:55 AM 23.0 °F 8.3 °F 19.4 °F 86% 29.64 in 10.0 mi WNW 19.6 mph - N/A   Clear
6:15 AM 23.0 °F 8.7 °F 19.4 °F 86% 29.64 in 10.0 mi WNW 18.4 mph - N/A   Partly Cloudy
6:35 AM 23.0 °F 9.2 °F 19.4 °F 86% 29.63 in 10.0 mi WNW 17.3 mph - N/A   Overcast
6:55 AM 23.0 °F 10.1 °F 19.4 °F 86% 29.62 in 10.0 mi WNW 15.0 mph - N/A   Overcast
7:15 AM 24.8 °F 11.9 °F 19.4 °F 80% 29.62 in 10.0 mi WNW 16.1 mph - N/A   Overcast
7:35 AM 24.8 °F 11.5 °F 21.2 °F 86% 29.60 in 10.0 mi WNW 17.3 mph - N/A   Overcast
7:55 AM 24.8 °F 11.9 °F 21.2 °F 86% 29.59 in 10.0 mi WNW 16.1 mph - N/A   Mostly Cloudy
8:15 AM 24.8 °F 11.5 °F 21.2 °F 86% 29.58 in 10.0 mi West 17.3 mph - N/A   Partly Cloudy
8:35 AM 24.8 °F 11.5 °F 21.2 °F 86% 29.57 in 10.0 mi West 17.3 mph - N/A   Clear
8:55 AM 26.6 °F 13.8 °F 23.0 °F 86% 29.57 in 10.0 mi WNW 17.3 mph - N/A   Partly Cloudy
9:15 AM 26.6 °F 13.4 °F 23.0 °F 86% 29.56 in 10.0 mi WNW 18.4 mph - N/A   Mostly Cloudy
9:35 AM 28.4 °F 16.2 °F 23.0 °F 80% 29.56 in 10.0 mi WNW 17.3 mph - N/A   Mostly Cloudy
9:55 AM 28.4 °F 15.1 °F 24.8 °F 86% 29.55 in 9.0 mi WNW 20.7 mph - N/A   Mostly Cloudy
10:15 AM 28.4 °F 15.4 °F 26.6 °F 93% 29.53 in 7.0 mi WNW 19.6 mph - N/A Rain Light Freezing Rain
10:35 AM 30.2 °F 17.1 °F 26.6 °F 86% 29.53 in 10.0 mi WNW 21.9 mph - N/A Rain Light Freezing Rain
10:55 AM 32.0 °F 20.5 °F 26.6 °F 80% 29.53 in 10.0 mi WNW 18.4 mph 24.2 mph N/A   Overcast
11:15 AM 32.0 °F 20.1 °F 26.6 °F 80% 29.53 in 10.0 mi WNW 19.6 mph - N/A   Overcast
11:35 AM 32.0 °F 19.8 °F 26.6 °F 80% 29.53 in 10.0 mi NW 20.7 mph - N/A   Overcast
11:55 AM 32.0 °F 19.8 °F 26.6 °F 80% 29.52 in 10.0 mi WNW 20.7 mph 28.8 mph N/A   Overcast
12:15 PM 32.0 °F 19.2 °F 26.6 °F 80% 29.51 in 10.0 mi NW 23.0 mph - N/A Rain Light Rain
12:35 PM 32.0 °F 19.5 °F 28.4 °F 87% 29.51 in 2.0 mi NW 21.9 mph 28.8 mph 0.02 in Snow Light Snow
12:55 PM 32.0 °F 19.5 °F 28.4 °F 87% 29.51 in 3.0 mi NW 21.9 mph - 0.05 in Rain Light Rain
1:15 PM 32.0 °F 20.1 °F 28.4 °F 87% 29.50 in 8.0 mi NW 19.6 mph - N/A Rain Light Rain
1:35 PM 32.0 °F 19.5 °F 28.4 °F 87% 29.50 in 10.0 mi NW 21.9 mph 26.5 mph N/A   Overcast
1:55 PM 32.0 °F 20.1 °F 28.4 °F 87% 29.50 in 10.0 mi NW 19.6 mph 24.2 mph N/A   Mostly Cloudy
2:15 PM 32.0 °F 20.8 °F 28.4 °F 87% 29.50 in 10.0 mi NW 17.3 mph 27.6 mph N/A   Overcast
2:35 PM 32.0 °F 19.8 °F 28.4 °F 87% 29.50 in 10.0 mi NW 20.7 mph - N/A   Overcast
2:55 PM 32.0 °F 19.8 °F 28.4 °F 87% 29.51 in 10.0 mi NW 20.7 mph 26.5 mph N/A   Overcast
3:15 PM 32.0 °F 19.8 °F 28.4 °F 87% 29.51 in 10.0 mi NW 20.7 mph 26.5 mph N/A   Overcast
3:35 PM 32.0 °F 18.6 °F 28.4 °F 87% 29.52 in 7.0 mi NNW 25.3 mph 32.2 mph N/A Rain Light Rain
3:55 PM 30.2 °F 16.5 °F 26.6 °F 86% 29.54 in 1.5 mi North 24.2 mph 31.1 mph 0.01 in   Overcast
4:15 PM 26.6 °F 11.4 °F 24.8 °F 93% 29.56 in 0.5 mi North 25.3 mph 35.7 mph N/A Rain Light Freezing Rain
4:35 PM 26.6 °F 13.1 °F 23.0 °F 86% 29.58 in 1.0 mi North 19.6 mph - N/A Rain Light Freezing Rain
4:55 PM 24.8 °F 8.4 °F 23.0 °F 93% 29.60 in 1.2 mi North 27.6 mph 33.4 mph 0.01 in   Overcast
5:15 PM 23.0 °F 6.6 °F 19.4 °F 86% 29.62 in 0.5 mi NNE 25.3 mph 29.9 mph 0.06 in Rain Light Freezing Rain
5:35 PM 21.2 °F 5.2 °F 17.6 °F 86% 29.64 in 2.0 mi NNE 21.9 mph 28.8 mph 0.06 in Rain Light Freezing Rain
5:55 PM 21.2 °F 5.6 °F 17.6 °F 86% 29.65 in 9.0 mi North 20.7 mph 28.8 mph 0.06 in Rain Light Freezing Rain
6:15 PM 21.2 °F 6.0 °F 15.8 °F 80% 29.66 in 8.0 mi North 19.6 mph - N/A   Overcast
6:35 PM 19.4 °F 2.8 °F 15.8 °F 86% 29.68 in 5.0 mi North 21.9 mph 29.9 mph N/A   Overcast
6:55 PM 17.6 °F -1.0 °F 14.0 °F 86% 29.69 in 3.0 mi North 26.5 mph 33.4 mph N/A Rain Light Freezing Rain
7:15 PM 15.8 °F -3.4 °F 10.4 °F 79% 29.71 in 4.0 mi North 26.5 mph - N/A   Haze
7:35 PM 14.0 °F -5.5 °F 8.6 °F 79% 29.72 in 3.0 mi North 25.3 mph - N/A   Haze
7:55 PM 14.0 °F -2.5 °F 5.0 °F 67% 29.74 in 10.0 mi North 17.3 mph - N/A   Mostly Cloudy
8:15 PM 10.4 °F -4.1 °F 3.2 °F 73% 29.75 in 10.0 mi North 11.5 mph - N/A   Partly Cloudy
8:35 PM 8.6 °F -5.5 °F 1.4 °F 73% 29.76 in 10.0 mi North 10.4 mph - N/A   Clear
8:55 PM 6.8 °F -9.3 °F -0.4 °F 72% 29.77 in 10.0 mi North 12.7 mph - N/A   Clear
9:15 PM 6.8 °F -11.8 °F -0.4 °F 72% 29.77 in 10.0 mi North 17.3 mph - N/A   Clear
9:35 PM 6.8 °F -12.9 °F -2.2 °F 67% 29.78 in 10.0 mi North 19.6 mph 24.2 mph N/A   Clear
9:55 PM 6.8 °F -13.8 °F -2.2 °F 67% 29.78 in 10.0 mi North 21.9 mph - N/A   Clear
10:15 PM 6.8 °F -13.4 °F -4.0 °F 61% 29.79 in 10.0 mi North 20.7 mph - N/A   Clear
10:35 PM 5.0 °F -15.7 °F -4.0 °F 66% 29.79 in 10.0 mi North 20.7 mph 27.6 mph N/A   Clear
10:55 PM 5.0 °F -15.2 °F -4.0 °F 66% 29.80 in 10.0 mi North 19.6 mph 24.2 mph N/A   Clear
11:15 PM 5.0 °F -14.7 °F -4.0 °F 66% 29.81 in 10.0 mi North 18.4 mph 24.2 mph N/A   Clear
11:35 PM 5.0 °F -16.2 °F -4.0 °F 66% 29.81 in 10.0 mi North 21.9 mph 28.8 mph N/A   Clear
11:55 PM 5.0 °F -17.1 °F -4.0 °F 66% 29.82 in 10.0 mi North 24.2 mph 28.8 mph N/A   Clear